Regional Weather Roundup
Issued by NWS

Home | Current Version | Previous Version | Graphics & Text | Print | Product List | Glossary On
Versions: 1 2 3 4 5 6 7 8 9 10 11 12 13 14 15 16 17 18 19 20 21 22 23 24 25 26 27 28 29 30 31 32 33 34 35 36 37 38 39 40 41 42 43 44 45 46 47 48 49 50
197
ASUS43 KMKX 232321
RWRWI

WISCONSIN REGIONAL WEATHER ROUNDUP
NATIONAL WEATHER SERVICE MILWAUKEE/SULLIVAN WI
600 PM CDT TUE MAY 23 2017

NOTE: "FAIR" INDICATES FEW OR NO CLOUDS BELOW 12,000 FEET WITH NO
SIGNIFICANT WEATHER AND/OR OBSTRUCTIONS TO VISIBILITY.

WIZ001-002-006>008-014>016-023>028-240000-
NORTHWEST WISCONSIN

CITY           SKY/WX    TMP DP  RH WIND       PRES   REMARKS
SUPERIOR ARPT  NOT AVBL
ASHLAND        CLOUDY    47  44  90 NE12      29.89S
HAYWARD        PTSUNNY   57  43  59 N18       29.83S
SIREN          CLOUDY    56  45  64 NE10G18   29.83S
CUMBERLAND     PTSUNNY   55  43  62 N15       29.81R
RICE LAKE      CLOUDY    57  45  63 N12       29.81S
CHETEK         CLOUDY    54  49  83 CALM      29.79S
LADYSMITH      CLOUDY    56  47  72 NE9       29.81S
EAU CLAIRE     CLOUDY    57  45  64 N7        29.76S
MENOMONIE      CLOUDY    57  48  71 N8        29.78S
NEW RICHMOND   CLOUDY    59  45  61 N10       29.80S
OSCEOLA        CLOUDY    60  45  58 N10       29.83R
$$

WIZ003>005-009-010-017-018-240000-
NORTH CENTRAL WISCONSIN

CITY           SKY/WX    TMP DP  RH WIND       PRES   REMARKS
MANITOWISH WTR CLOUDY    53  43  69 NE8       29.82S
ARBOR VITAE    CLOUDY    55  45  70 N5        29.80S
WOODRUFF       CLOUDY    55  45  70 N5        29.80S
RHINELANDER    CLOUDY    57  46  66 NE5       29.79S
EAGLE RIVER    CLOUDY    55  43  63 N12       29.80S
LAND O LAKES   CLOUDY    53  44  72 N7        29.83S
PHILLIPS       CLOUDY    52  45  76 N7        29.80S
TOMAHAWK       CLOUDY    55  45  69 N3        29.79S
MEDFORD        CLOUDY    55  45  68 NE8       29.76F
MERRILL        CLOUDY    56  46  67 E5        29.78S
$$

WIZ029-030-035-036-043>047-240000-
CENTRAL WISCONSIN

CITY           SKY/WX    TMP DP  RH WIND       PRES   REMARKS
WAUSAU         CLOUDY    56  44  64 NE9       29.75S
MOSINEE        CLOUDY    55  46  71 NE13      29.77S
MARSHFIELD     CLOUDY    57  44  62 NE13      29.74S
STEVENS POINT  CLOUDY    53  45  73 E12       29.76S
WAUPACA        CLOUDY    55  46  71 E6        29.77R
WAUTOMA        LGT RAIN  52  49  89 E17       29.74S
WISC RAPIDS    CLOUDY    56  46  69 E14       29.75S
CAMP DOUGLAS   LGT RAIN  54  52  94 CALM      29.74R FOG
$$

WIZ011>013-019>022-031-037>040-048>050-240000-
NORTHEAST WISCONSIN

CITY           SKY/WX    TMP DP  RH WIND       PRES   REMARKS
ANTIGO         CLOUDY    54  45  72 NE9       29.78S
SHAWANO        CLOUDY    54  46  75 NE10      29.78S
OCONTO         CLOUDY    51  47  85 CALM      29.79S
STURGEON BAY   CLOUDY    54  45  71 NE8       29.78S
GREEN BAY      LGT RAIN  51  51 100 NE10      29.77S
MANITOWOC      RAIN      48  45  87 VRB6      29.77R FOG
APPLETON       LGT RAIN  50  48  93 NE9G17    29.74R
CLINTONVILLE   LGT RAIN  52  46  82 NE6       29.77S
OSHKOSH        LGT RAIN  52  49  89 NE12      29.74S
$$

WIZ032>034-041-042-053>061-240000-
SOUTHWEST WISCONSIN

CITY           SKY/WX    TMP DP  RH WIND       PRES   REMARKS
LA CROSSE      LGT RAIN  58  53  84 N3        29.73R
SPARTA         RAIN      52  51  96 NE8       29.73S
VIROQUA        CLOUDY    55  53  94 MISG      29.71S
BOSCOBEL       CLOUDY    62  50  64 N7        29.70S
PRAIRIE DU CHI PTSUNNY   59  49  69 N7        29.70S
PLATTEVILLE    PTSUNNY   59  54  82 W6        29.70S
$$

WIZ056-057-062-063-064-067-068-240000-
SOUTH CENTRAL WISCONSIN

CITY           SKY/WX    TMP DP  RH WIND       PRES   REMARKS
REEDSBURG      LGT RAIN  54  51  90 NW8       29.72R
BARABOO/DELLS  CLOUDY    56  52  85 E10G16    29.71R
LONE ROCK      CLOUDY    59  51  75 NW9       29.70R
MINERAL POINT  MOSUNNY   63  52  67 W3        29.70S
MADISON        RAIN      58  51  78 SW6       29.70S
MIDDLETON      CLOUDY    59  53  80 SE3       29.70F
WATERTOWN      LGT RAIN  54  54 100 SW5       29.70F
MONROE         CLOUDY    57  54  88 CALM      29.69F
JANESVILLE     MOSUNNY   55  55 100 CALM      29.70F
$$

WIZ051-052-058>065-066-070>072-240000-
SOUTHEAST WISCONSIN

CITY           SKY/WX    TMP DP  RH WIND       PRES   REMARKS
MILWAUKEE      CLOUDY    59  55  87 S10       29.72R
WAUKESHA       RAIN      54  54 100 SE5       29.73S
MILWAUKEE/TIMM HVY RAIN  55  52  88 SW3       29.73S
RACINE         CLOUDY    56  52  86 S10       29.73F
KENOSHA        LGT RAIN  59  55  87 SE8       29.72S
FOND DU LAC    HVY RAIN  52  48  86 NE9       29.74S FOG
SHEBOYGAN      LGT RAIN  49  48  97 NE14      29.74F
WEST BEND      DRIZZLE   52  52 100 NE10      29.73R
JUNEAU         RAIN      54  53  97 CALM      29.74R
$$

LSZ147-162-240000-
LAKE SUPERIOR

STATION/POSITION TIME  TEMP    WIND        PRES    WAVE
                       AIR SEA DIR/SP/G            HT/PER
                 (UTC) (F)     (DEG/KT/KT) (MB)    (FT/S)
W MID LAKE BUOY  2250   41 37   70/  4/  6 1012.7R   0
DEVILS ISLAND    2300   42     360/  6/  6 1013.1R
PORT WING        2240   42      20/ 14/ 15 1012.2R
SAXON HARBOR     2240   42      10/  3/  6 1011.9S
$$

LMZ867-665-643>646-240000-
LAKE MICHIGAN

STATION/POSITION TIME  TEMP    WIND        PRES    WAVE
                       AIR SEA DIR/SP/G            HT/PER
                 (UTC) (F)     (DEG/KT/KT) (MB)    (FT/S)
CHAMBERS ISLAND  2240   49      10/  3/  4 1008.1F
N MID LAKE BUOY  2250   42 39  340/  6/  8 1009.0F   0
NORTHPORT PIER   2240   49     360/  6/  8 1008.1F
KEWAUNEE LAKESHO 2254   49      10/  8/ 13 1007.7R
SHEBOYGAN LAKESH 2300   45      10/ 13/ 14 1007.6S
PORT WASHINGTON  2240   47      50/  7/ 10 1008.1R
ATWATER BUOY     2209   51     160/ 12/ 16 1006.5F
MILWAUKEE LAKESH 2300   51     130/  9/  9   N/A
S MID LAKE BUOY  2250   49 45  150/  2/  2 1006.9F   0
KENOSHA   LAKESH 2300   53     170/ 12/ 13 1006.1
$$

TC  - TEMPERATURE IN CELSIUS
VSB - VISIBILITY IN STATUTE MILES
WCI - WIND CHILL INDEX
HX  - HEAT INDEX





USA.gov is the U.S. government's official web portal to all federal, state and local government web resources and services.